Regional Weather Roundup
Issued by NWS Green Bay, WI

Home | Current Version | Previous Version | Text Only | Print | Product List | Glossary On
Versions: 1 2 3 4 5 6 7 8 9 10 11 12 13 14 15 16 17 18 19 20 21 22 23 24 25 26 27 28 29 30 31 32 33 34 35 36 37 38 39 40 41 42 43 44 45 46 47 48 49 50
842
ASUS43 KGRB 240300
RWRGRB

NORTH-CENTRAL AND NORTHEAST WISCONSIN REGIONAL WEATHER ROUNDUP
NATIONAL WEATHER SERVICE GREEN BAY WI
1000 PM CDT MON MAY 23 2016

WIZ005-009-010>012-018-019-240400-
NORTH CENTRAL WISCONSIN

CITY           SKY/WX    TMP DP  RH WIND       PRES   REMARKS
IRONWOOD       CLOUDY    64  63  94 CALM      29.80F
MANITOWISH WTR NOT AVBL
ARBOR VITAE    NOT AVBL
EAGLE RIVER    NOT AVBL
LAND O LAKES   NOT AVBL
RHINELANDER    CLOUDY    72  45  37 S6        29.85R
PHILLIPS       NOT AVBL
ANTIGO         NOT AVBL
TOMAHAWK       NOT AVBL
MERRILL        NOT AVBL
$$

WIZ013-073-240400-
NORTHEAST WISCONSIN

CITY           SKY/WX    TMP DP  RH WIND       PRES   REMARKS
IRON MOUNTAIN  CLOUDY    66  48  52 SE6       29.84R
MARINETTE      CLEAR     63  43  48 SW6       29.88R
$$

WIZ017-030-035>037-045-240400-
CENTRAL WISCONSIN

CITY           SKY/WX    TMP DP  RH WIND       PRES   REMARKS
MEDFORD        NOT AVBL
WAUSAU         PTCLDY    72  46  39 SE7       29.82R
MOSINEE        CLEAR     68  46  45 S8        29.85R
MARSHFIELD     CLOUDY    70  46  42 S8        29.82R
WISC RAPIDS    CLOUDY    72  43  35 S5        29.85R
STEVENS POINT  NOT AVBL
WAUPACA        NOT AVBL
SHAWANO        NOT AVBL
CLINTONVILLE   NOT AVBL
WAUTOMA        PTCLDY    64  50  60 CALM      29.86R
$$

WIZ038-039-048-051-240400-
FOX VALLEY

CITY           SKY/WX    TMP DP  RH WIND       PRES   REMARKS
NWS GREEN BAY  CLOUDY    68  43  40 S7        29.87R
APPLETON       NOT AVBL
OSHKOSH        CLOUDY    62  48  60 S6        29.87R
FOND DU LAC    CLOUDY    67  47  48 S7        29.88R
$$

WIZ022-050-052-240400-
EAST CENTRAL WISCONSIN

CITY           SKY/WX    TMP DP  RH WIND       PRES   REMARKS
EPHRAIM        NOT AVBL
STURGEON BAY   NOT AVBL
MANITOWOC      NOT AVBL
SHEBOYGAN      CLEAR     60  38  43 S5        29.90R
$$

LMZ563-521-522-541>543-240400-
LAKESHORE

STATION/POSITION TIME  TEMP    WIND        PRES    VSBY  WAVE
                       AIR SEA DIR/SP/G                  HT/PER
                 (UTC) (F)     (DEG/KT/KT) (MB)    (MI)  (FT/S)
SHEBOYGAN LKSHOR 0200   58     180/ 15/ 15 1012.6F
KEWAUNEE LKSHORE 0200   56     170/  9/ 11 1011.3
ALGOMA MARINA    0201          210/ 12/ 14   N/A
NORTHPORT PIER   0200   63     150/  8/ 12 1011.2S
N MID LAKE BUOY  0150   51 45  190/ 12/ 14 1011.6R         2/ 4
SISTER BAY LKSHO 0219   66     180/ 17/ 24   N/A
CHAMBERS ISLAND  0200   65     150/  8/ 14 1010.8S
MENOMINEE LKSHOR 0200   63     190/  6/ 12 1009.9
$$




USA.gov is the U.S. government's official web portal to all federal, state and local government web resources and services.